Location: Chequamegon National Forest
(46.1070°N, 90.8420°W)
Time: 12:20:05
(UTC-05:00)

ISS - All Passes

Search period start: 27 March 2015 00:00
Search period end: 06 April 2015 00:00
Orbit: 396 x 406 km, 51.6° (Epoch: 27 March)

Date Brightness Start Highest point End Pass type
(mag) Time Alt. Az. Time Alt. Az. Time Alt. Az.
27 Mar - 00:44:37 10° SW 00:47:48 51° SSE 00:50:59 10° ENE night (unlit)
27 Mar - 02:21:13 10° W 02:24:18 39° NNW 02:27:22 10° NE night (unlit)
27 Mar - 03:58:17 10° WNW 04:01:13 30° N 04:04:08 10° ENE visible
27 Mar - 05:34:44 10° WNW 05:37:59 69° NNE 05:41:12 10° ESE visible
27 Mar - 07:11:38 10° W 07:14:07 20° SW 07:16:34 10° S daylight
27 Mar - 23:51:42 10° SSW 23:54:34 29° SE 23:57:27 10° E night (unlit)
28 Mar - 01:27:40 10° W 01:30:51 53° NNW 01:34:03 10° ENE night (unlit)
28 Mar - 03:04:47 10° WNW 03:07:42 29° N 03:10:36 10° ENE visible
28 Mar - 04:41:25 10° WNW 04:44:34 46° NNE 04:47:43 10° E visible
28 Mar - 06:17:55 10° WNW 06:20:56 35° SW 06:23:55 10° SSE visible
28 Mar - 22:59:13 10° S 23:01:22 17° SE 23:03:35 10° E night (unlit)
29 Mar - 00:34:11 10° WSW 00:37:27 82° NNW 00:40:43 10° ENE night (unlit)
29 Mar - 02:11:12 10° WNW 02:14:09 31° N 02:17:07 10° ENE night (unlit)
29 Mar - 03:48:02 10° WNW 03:51:05 36° NNE 03:54:07 10° E visible
29 Mar - 05:24:26 10° WNW 05:27:39 64° SSW 05:30:50 10° SE visible
29 Mar - 23:40:52 10° SW 23:44:04 59° SSE 23:47:17 10° ENE night (unlit)
30 Mar - 01:17:32 10° W 01:20:37 37° NNW 01:23:40 10° ENE night (unlit)
30 Mar - 02:54:34 10° WNW 02:57:32 30° N 03:00:28 10° ENE night (unlit)
30 Mar - 04:31:00 10° WNW 04:34:15 77° NNE 04:37:29 10° ESE visible
30 Mar - 06:08:03 10° W 06:10:21 18° SW 06:12:36 10° S visible
30 Mar - 22:47:46 10° SSW 22:50:44 33° SE 22:53:43 10° ENE night (unlit)
31 Mar - 00:23:53 10° W 00:27:04 49° NNW 00:30:15 10° ENE night (unlit)
31 Mar - 02:01:01 10° WNW 02:03:55 29° N 02:06:50 10° ENE night (unlit)
31 Mar - 03:37:36 10° WNW 03:40:46 50° NNE 03:43:56 10° E visible
31 Mar - 05:14:09 10° WNW 05:17:05 31° SW 05:19:59 10° SSE visible
31 Mar - 21:55:04 10° S 21:57:26 19° SE 21:59:52 10° E night (unlit)
31 Mar - 23:30:18 10° WSW 23:33:33 74° NNW 23:36:49 10° ENE night (unlit)
01 Apr - 01:07:21 10° WNW 01:10:18 30° N 01:13:14 10° ENE night (unlit)
01 Apr - 02:44:08 10° NW 02:47:12 37° NNE 02:50:16 10° E night (unlit)
01 Apr - 04:20:32 10° WNW 04:23:43 56° SSW 04:26:53 10° SE visible
01 Apr - 21:03:29 10° SE 21:04:10 11° SE 21:04:58 10° ESE night (unlit)
01 Apr - 22:36:50 10° SW 22:40:05 67° SSE 22:43:19 10° ENE night (unlit)
02 Apr - 00:13:36 10° W 00:16:39 35° NNW 00:19:42 10° ENE night (unlit)
02 Apr - 01:50:36 10° WNW 01:53:34 31° N 01:56:32 10° ENE night (unlit)
02 Apr - 03:27:00 10° WNW 03:30:16 85° NNE 03:33:30 10° ESE night (unlit)
02 Apr - 05:04:13 10° W 05:06:18 16° SW 05:08:19 10° S visible
02 Apr - 21:43:36 10° SSW 21:46:38 37° SE 21:49:43 10° ENE visible
02 Apr - 23:19:51 10° W 23:23:01 45° NNW 23:26:10 10° ENE night (unlit)
03 Apr - 00:56:58 10° WNW 00:59:53 29° N 01:02:48 10° ENE night (unlit)
03 Apr - 02:33:30 10° WNW 02:36:42 55° NNE 02:39:54 10° E night (unlit)
03 Apr - 04:10:07 10° W 04:12:58 28° SW 04:15:46 10° SSE night (unlit)
03 Apr - 20:50:42 10° S 20:53:15 21° SE 20:55:50 10° E visible
03 Apr - 22:26:09 10° WSW 22:29:24 67° NNW 22:32:39 10° ENE visible
04 Apr - 00:03:14 10° WNW 00:06:10 30° N 00:09:06 10° ENE night (unlit)
04 Apr - 01:39:58 10° WNW 01:43:04 39° NNE 01:46:09 10° E night (unlit)
04 Apr - 03:16:22 10° WNW 03:19:31 49° SW 03:22:40 10° SE night (unlit)
04 Apr - 19:58:34 10° SSE 19:59:53 12° SE 20:01:18 10° ESE daylight
04 Apr - 21:32:34 10° SW 21:35:49 75° SSE 21:39:05 10° ENE visible
04 Apr - 23:09:24 10° WNW 23:12:26 34° N 23:15:27 10° ENE visible
05 Apr - 00:46:22 10° WNW 00:49:21 32° N 00:52:20 10° ENE night (unlit)
05 Apr - 02:22:44 10° WNW 02:26:00 86° SSW 02:29:14 10° ESE night (unlit)
05 Apr - 04:00:10 10° W 04:01:59 14° SW 04:03:44 10° SSW night (unlit)
05 Apr - 20:39:11 10° SW 20:42:17 42° SE 20:45:24 10° ENE visible
05 Apr - 22:15:33 10° W 22:18:42 43° NNW 22:21:50 10° ENE visible
05 Apr - 23:52:39 10° WNW 23:55:35 29° N 23:58:30 10° ENE night (unlit)
